Вернуться в каталог

KUIPER-00091

АктивенСвязьLEO
NORAD 64836·PAYLOAD·🇺🇸 United States

Запущен Jul 16, 2025 с Cape Canaveral Space Force Station

Loading…

Ближайшие Пролёты (ближайшие 24 часа)

TLE

СвежийSource: CelesTrak SupGP

Эпоха: Sep 14, 2026, 15:57 UTC

1 64836C 25151W   26257.66523148  .00004669  00000+0  61118-3 0  2579
2 64836  51.9000 167.4691 0001052  87.8418 120.6958 14.79922195    13

Отслеживайте KUIPER-00091 в реальном времени с AllMySat

Download on the App Store